sat.trackr.live / text

‹ back to catalog

STARLINK-4572

NORAD 53692 · 2022-105AW

PAYLOAD ACTIVE UNKNOWN

§ Identity

Operator
Country
US
Launch date
2022-08-31
Launch site
AFWTR
Launch vehicle
Mass (kg)
RCS (m²)

Purposes: comms

External: N2YO · Heavens-Above · Gunter

§ Orbital elements

Epoch: 2026-09-20T22:35:27.450816Z

Period
93.99 min
Inclination
97.5939°
Eccentricity
0.0002363
Mean motion
15.32084014 rev/d
Perigee alt
468.0 km
Apogee alt
471.2 km
Semi-major
6,847.7 km
B*
8.4679e-4
RAAN
154.4845°
Arg perigee
92.1767°
Mean anomaly
267.9745°
Rev number
22,334

§ Raw data

STARLINK-45721 53692U 22105AW  26263.94128994  .00026213  00000+0  84679-3 0  99902 53692  97.5939 154.4845 0002363  92.1767 267.9745 15.32084014223348

JSON: /api/v1/satellites/53692 · /tle

For live sub-satellite position, see the globe view (requires WebGL).

§ Visibility from observer

Set your observer location to see the next 7 days of passes ≥ 10°. The values pass through the URL so the page stays shareable.

No JS? Fill the form by hand. The geolocation button needs JavaScript.